When you browse on this site, cookies collect data to enhance your experience and personalize the content and advertising you see.
Visit our Privacy Policy to learn more. By continuing to use the site, you agree to this use of cookies and data.
  • In Hungary
  • List of Countries
  • For 7 days
  • Water Temperature
  • Satellite Maps
  • Weather Map
  • News
  • Weather Widgets
  • user-avatar
    Login

    Hourly Weather Viedma

    Today, 24 April, Wednesday

    Time Temperature Precipitation Wind Pressure Humidity
    00:00 +12°C° 0 mm 2 mps 765 mmHg 74%
    01:00 +12°C° 0 mm 2 mps 766 mmHg 75%
    02:00 +11°C° 0 mm 1 mps 766 mmHg 75%
    03:00 +11°C° 0 mm 1 mps 766 mmHg 76%
    04:00 +11°C° 0 mm 1 mps 765 mmHg 76%
    05:00 +10°C° 0 mm 1 mps 765 mmHg 77%
    06:00 +10°C° 0 mm 2 mps 765 mmHg 74%
    07:00 +12°C° 0 mm 2 mps 766 mmHg 70%
    08:00 +13°C° 0 mm 2 mps 766 mmHg 67%
    09:00 +15°C° 0 mm 2 mps 766 mmHg 60%
    10:00 +17°C° 0 mm 3 mps 766 mmHg 52%
    11:00 +19°C° 0 mm 3 mps 766 mmHg 45%
    12:00 +20°C° 0 mm 3 mps 766 mmHg 45%
    13:00 +21°C° 0 mm 4 mps 766 mmHg 44%
    14:00 +22°C° 0 mm 4 mps 765 mmHg 44%
    15:00 +21°C° 0 mm 4 mps 765 mmHg 50%
    16:00 +20°C° 0 mm 5 mps 765 mmHg 56%
    17:00 +19°C° 0 mm 5 mps 765 mmHg 62%
    18:00 +16°C° 0 mm 5 mps 765 mmHg 69%
    19:00 +15°C° 0 mm 5 mps 765 mmHg 76%
    20:00 +14°C° 0 mm 5 mps 765 mmHg 83%
    21:00 +14°C° 0 mm 5 mps 766 mmHg 85%
    22:00 +14°C° 0 mm 5 mps 766 mmHg 86%
    23:00 +13°C° 0 mm 5 mps 766 mmHg 88%

    Tomorrow, 25 April, Thursday

    Time Temperature Precipitation Wind Pressure Humidity
    00:00 +13°C° 0 mm 5 mps 766 mmHg 89%
    01:00 +13°C° 0 mm 4 mps 766 mmHg 91%
    02:00 +13°C° 0 mm 4 mps 767 mmHg 92%
    03:00 +13°C° 0 mm 4 mps 766 mmHg 93%
    04:00 +13°C° 0 mm 4 mps 766 mmHg 93%
    05:00 +13°C° 0 mm 4 mps 766 mmHg 94%
    06:00 +13°C° 0 mm 4 mps 766 mmHg 92%
    07:00 +13°C° 0 mm 4 mps 766 mmHg 91%
    08:00 +14°C° 0 mm 4 mps 767 mmHg 89%
    09:00 +16°C° 0 mm 5 mps 767 mmHg 79%
    10:00 +17°C° 0 mm 5 mps 767 mmHg 69%
    11:00 +20°C° 0 mm 5 mps 767 mmHg 59%
    12:00 +20°C° 0 mm 5 mps 767 mmHg 58%
    13:00 +20°C° 0 mm 5 mps 766 mmHg 57%
    14:00 +20°C° 0 mm 5 mps 766 mmHg 56%
    15:00 +20°C° 0 mm 5 mps 766 mmHg 60%
    16:00 +19°C° 0 mm 5 mps 766 mmHg 63%
    17:00 +17°C° 0 mm 5 mps 766 mmHg 67%
    18:00 +16°C° 0 mm 5 mps 766 mmHg 70%
    19:00 +15°C° 0 mm 5 mps 766 mmHg 73%
    20:00 +14°C° 0 mm 5 mps 766 mmHg 76%
    21:00 +14°C° 0 mm 5 mps 766 mmHg 74%
    22:00 +15°C° 0 mm 5 mps 766 mmHg 73%
    23:00 +15°C° 0 mm 5 mps 766 mmHg 71%

    Day after tomorrow, 26 April, Friday

    Time Temperature Precipitation Wind Pressure Humidity
    00:00 +15°C° 0 mm 5 mps 766 mmHg 69%
    01:00 +15°C° 0 mm 5 mps 765 mmHg 66%
    02:00 +15°C° 0 mm 5 mps 765 mmHg 64%
    03:00 +15°C° 0 mm 5 mps 765 mmHg 62%
    04:00 +15°C° 0 mm 5 mps 765 mmHg 59%
    05:00 +15°C° 0 mm 5 mps 764 mmHg 56%
    06:00 +15°C° 0 mm 5 mps 764 mmHg 55%
    07:00 +15°C° 0 mm 5 mps 764 mmHg 53%
    08:00 +15°C° 0 mm 5 mps 764 mmHg 52%
    09:00 +16°C° 0 mm 5 mps 764 mmHg 50%
    10:00 +17°C° 0 mm 5 mps 764 mmHg 48%
    11:00 +17°C° 0 mm 5 mps 764 mmHg 46%
    12:00 +20°C° 0 mm 5 mps 764 mmHg 43%
    13:00 +21°C° 0 mm 6 mps 763 mmHg 39%
    14:00 +23°C° 0 mm 6 mps 762 mmHg 36%
    15:00 +23°C° 0 mm 5 mps 762 mmHg 39%
    16:00 +22°C° 0 mm 4 mps 762 mmHg 42%
    17:00 +22°C° 0 mm 4 mps 761 mmHg 46%
    18:00 +21°C° 0 mm 4 mps 761 mmHg 51%
    19:00 +20°C° 0 mm 4 mps 761 mmHg 56%
    20:00 +20°C° 0 mm 5 mps 761 mmHg 62%
    21:00 +19°C° 0 mm 5 mps 761 mmHg 66%
    22:00 +17°C° 0 mm 5 mps 761 mmHg 70%
    23:00 +17°C° 0 mm 5 mps 761 mmHg 74%

    27 April, Saturday

    Time Temperature Precipitation Wind Pressure Humidity
    00:00 +16°C° 0 mm 5 mps 761 mmHg 77%
    01:00 +16°C° 0 mm 5 mps 760 mmHg 80%
    02:00 +16°C° 0 mm 5 mps 760 mmHg 82%
    03:00 +15°C° 0 mm 5 mps 760 mmHg 85%
    04:00 +15°C° 0 mm 5 mps 759 mmHg 87%
    05:00 +15°C° 0 mm 5 mps 759 mmHg 89%
    06:00 +15°C° 0 mm 5 mps 759 mmHg 88%
    07:00 +15°C° 0 mm 6 mps 759 mmHg 86%
    08:00 +16°C° 0 mm 6 mps 759 mmHg 84%
    09:00 +17°C° 0 mm 6 mps 759 mmHg 78%
    10:00 +18°C° 0 mm 7 mps 758 mmHg 72%
    11:00 +21°C° 0 mm 7 mps 758 mmHg 65%
    12:00 +21°C° 0 mm 7 mps 757 mmHg 64%
    13:00 +21°C° 0 mm 7 mps 756 mmHg 62%
    14:00 +22°C° 0 mm 7 mps 756 mmHg 60%
    15:00 +22°C° 0.1 mm 6 mps 755 mmHg 60%
    16:00 +22°C° 0.1 mm 5 mps 755 mmHg 59%
    17:00 +22°C° 0.1 mm 4 mps 754 mmHg 58%
    18:00 +21°C° 0.7 mm 3 mps 755 mmHg 62%
    19:00 +21°C° 0.7 mm 3 mps 755 mmHg 66%
    20:00 +20°C° 0.7 mm 3 mps 755 mmHg 70%
    21:00 +20°C° 0.2 mm 4 mps 755 mmHg 68%
    22:00 +20°C° 0.2 mm 4 mps 755 mmHg 67%
    23:00 +19°C° 0.2 mm 4 mps 755 mmHg 66%

    28 April, Sunday

    Time Temperature Precipitation Wind Pressure Humidity
    00:00 +19°C° 0 mm 4 mps 755 mmHg 69%
    01:00 +18°C° 0 mm 4 mps 755 mmHg 73%
    02:00 +17°C° 0 mm 3 mps 755 mmHg 77%
    03:00 +17°C° 0 mm 3 mps 755 mmHg 80%
    04:00 +16°C° 0 mm 3 mps 755 mmHg 83%
    05:00 +16°C° 0 mm 2 mps 756 mmHg 86%
    06:00 +16°C° 0 mm 3 mps 756 mmHg 86%
    07:00 +16°C° 0 mm 3 mps 757 mmHg 86%
    08:00 +16°C° 0 mm 3 mps 757 mmHg 86%
    09:00 +17°C° 0 mm 3 mps 757 mmHg 78%
    10:00 +18°C° 0 mm 3 mps 757 mmHg 71%
    11:00 +19°C° 0 mm 3 mps 757 mmHg 63%
    12:00 +19°C° 0 mm 3 mps 757 mmHg 63%
    13:00 +19°C° 0 mm 2 mps 756 mmHg 62%
    14:00 +19°C° 0 mm 2 mps 756 mmHg 62%
    15:00 +18°C° 0 mm 2 mps 756 mmHg 64%
    16:00 +18°C° 0 mm 2 mps 756 mmHg 65%
    17:00 +18°C° 0 mm 2 mps 755 mmHg 67%
    18:00 +17°C° 0 mm 3 mps 755 mmHg 73%
    19:00 +14°C° 0 mm 3 mps 755 mmHg 79%
    20:00 +13°C° 0 mm 4 mps 755 mmHg 85%
    21:00 +13°C° 0 mm 4 mps 754 mmHg 87%
    22:00 +13°C° 0 mm 4 mps 754 mmHg 88%
    23:00 +13°C° 0 mm 5 mps 753 mmHg 90%

    29 April, Monday

    Time Temperature Precipitation Wind Pressure Humidity
    00:00 +13°C° 0 mm 5 mps 753 mmHg 90%
    01:00 +14°C° 0 mm 6 mps 752 mmHg 90%
    02:00 +14°C° 0 mm 6 mps 752 mmHg 90%
    03:00 +14°C° 0 mm 7 mps 752 mmHg 78%
    04:00 +15°C° 0 mm 7 mps 752 mmHg 67%
    05:00 +16°C° 0 mm 7 mps 751 mmHg 55%
    06:00 +16°C° 0 mm 7 mps 752 mmHg 54%
    07:00 +15°C° 0 mm 7 mps 753 mmHg 53%
    08:00 +15°C° 0 mm 7 mps 754 mmHg 52%
    09:00 +16°C° 0 mm 8 mps 754 mmHg 44%
    10:00 +17°C° 0 mm 9 mps 755 mmHg 35%
    11:00 +17°C° 0 mm 10 mps 755 mmHg 27%
    12:00 +18°C° 0 mm 10 mps 755 mmHg 25%
    13:00 +18°C° 0 mm 10 mps 755 mmHg 23%
    14:00 +18°C° 0 mm 10 mps 755 mmHg 21%
    15:00 +17°C° 0 mm 9 mps 755 mmHg 22%
    16:00 +17°C° 0 mm 7 mps 755 mmHg 23%
    17:00 +16°C° 0 mm 6 mps 755 mmHg 24%
    18:00 +15°C° 0 mm 6 mps 755 mmHg 27%
    19:00 +14°C° 0 mm 7 mps 756 mmHg 29%
    20:00 +12°C° 0 mm 8 mps 756 mmHg 32%
    21:00 +12°C° 0 mm 8 mps 757 mmHg 33%
    22:00 +12°C° 0 mm 9 mps 757 mmHg 35%
    23:00 +11°C° 0 mm 9 mps 758 mmHg 36%
    Show more